MDT,Max TemperatureF,Mean TemperatureF,Min TemperatureF,Max Dew PointF,MeanDew PointF,Min DewpointF,Max Humidity, Mean Humidity, Min Humidity, Max Sea Level PressureIn, Mean Sea Level PressureIn, Min Sea Level PressureIn, Max VisibilityMiles, Mean VisibilityMiles, Min VisibilityMiles, Max Wind SpeedMPH, Mean Wind SpeedMPH, Max Gust SpeedMPH,PrecipitationIn, CloudCover, Events, WindDirDegrees
2013-5-1,45,36,27,36,25,19,85,61,37,30.70,30.41,30.14,10,7,1,21,10,25,0.01,6,Rain-Snow,33
2013-5-2,53,39,24,31,26,21,88,60,32,30.75,30.62,30.44,10,10,9,23,8,29,T,2,,220
2013-5-3,63,44,24,30,24,19,92,56,19,30.43,30.26,30.14,10,10,10,15,4,18,0.00,0,,47
2013-5-4,57,40,23,25,19,11,88,52,16,30.31,30.27,30.22,10,10,8,17,5,25,0.00,0,,19
2013-5-5,63,43,22,27,22,17,92,55,17,30.32,30.24,30.15,10,10,10,10,2,15,0.00,0,,204
2013-5-6,74,51,27,35,28,24,92,56,19,30.17,30.05,29.94,10,10,9,26,6,31,0.00,1,,151
2013-5-7,76,61,45,47,42,36,86,57,27,29.94,29.87,29.77,10,10,10,30,14,37,T,2,Thunderstorm,185
2013-5-8,75,57,39,47,41,32,93,58,22,30.07,29.97,29.88,10,9,1,22,5,29,0.00,1,,40
2013-5-9,71,55,39,45,41,37,92,63,33,30.17,30.12,30.06,10,10,8,21,5,26,0.00,4,,319
2013-5-10,75,56,37,45,40,31,100,64,27,30.30,30.17,30.11,10,10,7,37,9,48,T,3,,313
2013-5-11,68,56,43,35,27,24,62,42,22,30.42,30.31,30.17,10,10,3,12,3,16,0.00,3,,32
2013-5-12,81,59,36,41,35,30,82,51,20,30.17,30.06,29.94,10,10,10,14,5,16,0.00,1,,150
2013-5-13,94,74,53,50,41,34,59,36,13,29.96,29.87,29.73,10,10,4,15,6,18,0.00,0,,238
2013-5-14,86,70,54,49,45,39,56,41,25,29.85,29.76,29.66,10,10,8,21,10,25,0.00,0,Thunderstorm,46
2013-5-15,82,67,52,51,40,36,67,45,23,29.94,29.86,29.79,10,10,9,25,11,33,T,0,Thunderstorm,115
2013-5-16,83,67,51,54,50,45,93,61,28,29.85,29.75,29.63,10,10,10,24,6,33,T,2,Rain-Thunderstorm,196
2013-5-17,90,69,47,61,51,46,100,69,38,29.85,29.75,29.63,10,8,0,36,12,41,0.02,2,Fog-Thunderstorm,123
2013-5-18,79,66,53,57,53,49,86,68,50,29.81,29.73,29.61,10,10,10,25,6,31,0.01,5,Rain-Thunderstorm,226
2013-5-19,70,59,47,55,52,45,96,76,55,29.77,29.72,29.66,10,8,1,28,8,33,0.43,7,Rain-Thunderstorm,310
2013-5-20,56,52,47,48,45,44,83,75,66,29.91,29.77,29.69,10,9,2,37,23,48,0.14,8,Rain,315
2013-5-21,55,51,46,45,44,41,93,80,66,30.01,29.93,29.89,10,8,1,25,11,31,0.06,8,Rain,23
2013-5-22,56,51,46,47,45,41,93,82,71,30.17,30.03,29.96,10,9,2,18,7,22,0.00,8,,32
2013-5-23,72,60,48,48,44,36,93,65,36,30.19,30.09,29.97,10,10,10,33,18,40,0.00,4,,134
2013-5-24,85,69,53,58,51,30,84,49,14,29.97,29.88,29.82,10,10,10,31,13,38,0.00,3,,152
2013-5-25,85,66,47,59,54,47,96,65,34,29.94,29.83,29.71,10,10,7,36,10,44,0.02,0,Rain-Thunderstorm,154
2013-5-26,71,64,56,61,56,48,100,79,57,29.95,29.85,29.68,10,8,2,25,10,32,0.00,5,,22
2013-5-27,81,65,49,63,57,45,100,74,48,29.82,29.74,29.60,10,7,2,31,10,47,0.08,6,Rain-Thunderstorm,94
2013-5-28,78,61,43,54,48,43,100,72,43,29.82,29.72,29.45,10,7,0,43,8,51,0.09,3,Fog-Rain-Thunderstorm,198
2013-5-29,74,63,52,54,51,47,100,69,38,29.62,29.55,29.48,10,10,10,28,6,37,0.02,4,Rain-Thunderstorm,233
2013-5-30,62,56,50,50,46,42,89,75,60,29.68,29.55,29.46,10,10,6,35,22,44,T,4,Rain,278
2013-5-31,56,52,48,46,43,40,86,75,63,29.94,29.77,29.68,10,9,3,38,23,51,0.50,8,Rain,291